| time (UTC) | temp C | wind direction | speed KPH | gust KPH | rain 1hr cm | rain 24hr cm | rain mn cm | humidity % | barometer mb |
| 20260906203326 | 26 | 221 | 1.6 | 9.7 | 0.00 | 0.00 | 0.00 | 60 | 1020.4 |
| 20260906202816 | 25 | 235 | 3.2 | 14.5 | 0.00 | 0.00 | 0.00 | 62 | 1020.4 |
| 20260906202324 | 25 | 256 | 6.4 | 14.5 | 0.00 | 0.00 | 0.00 | 57 | 1020.5 |
| 20260906201845 | 26 | 225 | 6.4 | 14.5 | 0.00 | 0.00 | 0.00 | 57 | 1020.3 |
| 20260906201314 | 26 | 235 | 1.6 | 14.5 | 0.00 | 0.00 | 0.00 | 62 | 1020.2 |
| 20260906200827 | 26 | 156 | 6.4 | 14.5 | 0.00 | 0.00 | 0.00 | 60 | 1020.3 |
| 20260906200320 | 25 | 311 | 0.0 | 8.0 | 0.00 | 0.00 | 0.00 | 62 | 1020.3 |
| 20260906195849 | 25 | 249 | 1.6 | 12.9 | 0.00 | 0.00 | 0.00 | 60 | 1020.4 |
| 20260906195318 | 25 | 239 | 8.0 | 14.5 | 0.00 | 0.00 | 0.00 | 59 | 1020.4 |
| 20260906194828 | 25 | 219 | 9.7 | 14.5 | 0.00 | 0.00 | 0.00 | 58 | 1020.4 |
| 20260906194320 | 25 | 238 | 3.2 | 17.7 | 0.00 | 0.00 | 0.00 | 62 | 1020.5 |
| 20260906193831 | 25 | 252 | 3.2 | 17.7 | 0.00 | 0.00 | 0.00 | 61 | 1020.5 |
| 20260906193318 | 25 | 154 | 6.4 | 17.7 | 0.00 | 0.00 | 0.00 | 61 | 1020.6 |
| 20260906192830 | 25 | 259 | 6.4 | 12.9 | 0.00 | 0.00 | 0.00 | 59 | 1020.7 |
| 20260906192321 | 25 | 216 | 4.8 | 11.3 | 0.00 | 0.00 | 0.00 | 59 | 1020.8 |
| 20260906191824 | 25 | 247 | 3.2 | 14.5 | 0.00 | 0.00 | 0.00 | 60 | 1020.8 |
| 20260906191315 | 25 | 252 | 6.4 | 14.5 | 0.00 | 0.00 | 0.00 | 61 | 1021.0 |
| 20260906190846 | 25 | 241 | 8.0 | 17.7 | 0.00 | 0.00 | 0.00 | 59 | 1020.9 |
| 20260906190315 | 25 | 253 | 1.6 | 17.7 | 0.00 | 0.00 | 0.00 | 61 | 1020.9 |
| 20260906185822 | 25 | 226 | 1.6 | 17.7 | 0.00 | 0.00 | 0.00 | 60 | 1020.9 |
| 20260906185312 | 25 | 221 | 11.3 | 17.7 | 0.00 | 0.00 | 0.00 | 57 | 1021.0 |
| 20260906184823 | 25 | 235 | 9.7 | 17.7 | 0.00 | 0.00 | 0.00 | 58 | 1020.9 |
| 20260906184334 | 24 | 252 | 8.0 | 16.1 | 0.00 | 0.00 | 0.00 | 58 | 1021.0 |
| 20260906183844 | 24 | 219 | 4.8 | 16.1 | 0.00 | 0.00 | 0.00 | 60 | 1020.9 |
| 20260906183313 | 24 | 234 | 9.7 | 14.5 | 0.00 | 0.00 | 0.00 | 58 | 1020.9 |
| 20260906182846 | 24 | 271 | 9.7 | 14.5 | 0.00 | 0.00 | 0.00 | 59 | 1020.9 |
| 20260906182337 | 23 | 277 | 8.0 | 14.5 | 0.00 | 0.00 | 0.00 | 58 | 1020.9 |
| 20260906181816 | 24 | 326 | 1.6 | 11.3 | 0.00 | 0.00 | 0.00 | 60 | 1020.9 |
| 20260906181328 | 24 | 262 | 6.4 | 14.5 | 0.00 | 0.00 | 0.00 | 60 | 1020.9 |
| 20260906180820 | 23 | 281 | 6.4 | 14.5 | 0.00 | 0.00 | 0.00 | 60 | 1020.9 |
| 20260906180324 | 24 | 262 | 8.0 | 12.9 | 0.00 | 0.00 | 0.00 | 58 | 1021.0 |
| 20260906175836 | 24 | 272 | 8.0 | 11.3 | 0.00 | 0.00 | 0.00 | 59 | 1020.9 |
| 20260906175324 | 23 | 278 | 6.4 | 11.3 | 0.00 | 0.00 | 0.00 | 60 | 1020.9 |
| 20260906174816 | 23 | 221 | 8.0 | 11.3 | 0.00 | 0.00 | 0.00 | 60 | 1020.9 |
| 20260906174327 | 23 | 262 | 6.4 | 11.3 | 0.00 | 0.00 | 0.00 | 62 | 1020.8 |
| 20260906173819 | 23 | 248 | 6.4 | 8.0 | 0.00 | 0.00 | 0.00 | 61 | 1020.9 |
| 20260906173330 | 23 | 247 | 3.2 | 8.0 | 0.00 | 0.00 | 0.00 | 63 | 1020.9 |
| 20260906172843 | 23 | 211 | 3.2 | 11.3 | 0.00 | 0.00 | 0.00 | 67 | 1021.0 |
| 20260906172333 | 23 | 231 | 3.2 | 11.3 | 0.00 | 0.00 | 0.00 | 63 | 1020.9 |
| 20260906171819 | 24 | 82 | 3.2 | 11.3 | 0.00 | 0.00 | 0.00 | 61 | 1021.0 |
| 20260906171349 | 24 | 229 | 3.2 | 11.3 | 0.00 | 0.00 | 0.00 | 59 | 1021.0 |
| 20260906170820 | 25 | 226 | 3.2 | 8.0 | 0.00 | 0.00 | 0.00 | 61 | 1021.0 |
| 20260906170313 | 24 | 48 | 0.0 | 8.0 | 0.00 | 0.00 | 0.00 | 56 | 1021.0 |
| 20260906165825 | 24 | 176 | 0.0 | 9.7 | 0.00 | 0.00 | 0.00 | 62 | 1021.2 |
| 20260906165316 | 24 | 223 | 6.4 | 11.3 | 0.00 | 0.00 | 0.00 | 58 | 1021.3 |
| 20260906164828 | 23 | 219 | 6.4 | 9.7 | 0.00 | 0.00 | 0.00 | 61 | 1021.4 |
| 20260906164318 | 23 | 250 | 4.8 | 9.7 | 0.00 | 0.00 | 0.00 | 64 | 1021.5 |
| 20260906163829 | 23 | 236 | 0.0 | 8.0 | 0.00 | 0.00 | 0.00 | 65 | 1021.5 |
| 20260906163323 | 23 | 270 | 3.2 | 8.0 | 0.00 | 0.00 | 0.00 | 64 | 1021.6 |
| 20260906162827 | 23 | 263 | 1.6 | 8.0 | 0.00 | 0.00 | 0.00 | 66 | 1021.5 |
| 20260906162319 | 23 | 231 | 4.8 | 9.7 | 0.00 | 0.00 | 0.00 | 64 | 1021.5 |
| 20260906161834 | 23 | 250 | 6.4 | 8.0 | 0.00 | 0.00 | 0.00 | 66 | 1021.5 |
| 20260906161405 | 22 | 352 | 1.6 | 4.8 | 0.00 | 0.00 | 0.00 | 67 | 1021.5 |
| 20260906160822 | 22 | 343 | 1.6 | 6.4 | 0.00 | 0.00 | 0.00 | 66 | 1021.5 |
| 20260906160333 | 22 | 218 | 0.0 | 8.0 | 0.00 | 0.00 | 0.00 | 66 | 1021.5 |
| 20260906155825 | 22 | 233 | 4.8 | 8.0 | 0.00 | 0.00 | 0.00 | 66 | 1021.6 |
| 20260906155316 | 22 | 18 | 1.6 | 4.8 | 0.00 | 0.00 | 0.00 | 70 | 1021.6 |
| 20260906154828 | 22 | 339 | 0.0 | 9.7 | 0.00 | 0.00 | 0.00 | 71 | 1021.7 |
| 20260906154319 | 22 | 257 | 3.2 | 9.7 | 0.00 | 0.00 | 0.00 | 70 | 1021.7 |
| 20260906153850 | 21 | 200 | 1.6 | 4.8 | 0.00 | 0.00 | 0.00 | 72 | 1021.7 |
| 20260906153320 | 21 | 243 | 1.6 | 6.4 | 0.00 | 0.00 | 0.00 | 73 | 1021.7 |
| 20260906152829 | 21 | 276 | 4.8 | 6.4 | 0.00 | 0.00 | 0.00 | 75 | 1021.7 |
| 20260906152321 | 21 | 247 | 0.0 | 3.2 | 0.00 | 0.00 | 0.00 | 75 | 1021.8 |
| 20260906151838 | 21 | 279 | 0.0 | 6.4 | 0.00 | 0.00 | 0.00 | 75 | 1021.8 |
| 20260906151318 | 21 | 255 | 1.6 | 4.8 | 0.00 | 0.00 | 0.00 | 78 | 1021.8 |
| 20260906150849 | 21 | 215 | 3.2 | 6.4 | 0.00 | 0.00 | 0.00 | 78 | 1021.8 |
| 20260906150319 | 21 | 269 | 3.2 | 6.4 | 0.00 | 0.00 | 0.00 | 78 | 1021.8 |
| 20260906145827 | 21 | 218 | 3.2 | 6.4 | 0.00 | 0.00 | 0.00 | 80 | 1021.7 |
| 20260906145406 | 20 | 254 | 0.0 | 3.2 | 0.00 | 0.00 | 0.00 | 83 | 1021.8 |
| 20260906144821 | 20 | 280 | 1.6 | 4.8 | 0.00 | 0.00 | 0.00 | 82 | 1021.7 |
| 20260906144328 | 20 | 272 | 1.6 | 4.8 | 0.00 | 0.00 | 0.00 | 83 | 1021.6 |
| 20260906143821 | 20 | 267 | 1.6 | 3.2 | 0.00 | 0.00 | 0.00 | 84 | 1021.6 |
| 20260906143352 | 19 | 261 | 0.0 | 0.0 | 0.00 | 0.00 | 0.00 | 85 | 1021.7 |
| 20260906142820 | 19 | 270 | 0.0 | 0.0 | 0.00 | 0.00 | 0.00 | 86 | 1021.6 |
| 20260906142321 | 18 | 269 | 0.0 | 0.0 | 0.00 | 0.00 | 0.00 | 86 | 1021.7 |
| 20260906141816 | 18 | 281 | 0.0 | 0.0 | 0.00 | 0.00 | 0.00 | 88 | 1021.7 |
| 20260906141329 | 18 | 288 | 0.0 | 0.0 | 0.00 | 0.00 | 0.00 | 88 | 1021.8 |
| 20260906140835 | 17 | 288 | 0.0 | 0.0 | 0.00 | 0.00 | 0.00 | 89 | 1021.7 |
| 20260906140326 | 17 | 293 | 0.0 | 0.0 | 0.00 | 0.00 | 0.00 | 90 | 1021.6 |
| 20260906135816 | 17 | 1 | 0.0 | 0.0 | 0.00 | 0.00 | 0.00 | 91 | 1021.7 |
| 20260906135325 | 16 | 346 | 0.0 | 0.0 | 0.00 | 0.00 | 0.00 | 92 | 1021.6 |
| 20260906134818 | 16 | 21 | 0.0 | 0.0 | 0.00 | 0.00 | 0.00 | 93 | 1021.5 |
| 20260906134342 | 16 | 21 | 0.0 | 0.0 | 0.00 | 0.00 | 0.00 | 94 | 1021.7 |
| 20260906133851 | 15 | 30 | 0.0 | 0.0 | 0.00 | 0.00 | 0.00 | 95 | 1021.6 |
| 20260906133322 | 15 | 30 | 0.0 | 0.0 | 0.00 | 0.00 | 0.00 | 96 | 1021.6 |
| 20260906132826 | 14 | 30 | 0.0 | 0.0 | 0.00 | 0.00 | 0.00 | 96 | 1021.5 |
| 20260906132319 | 14 | 30 | 0.0 | 0.0 | 0.00 | 0.00 | 0.00 | 97 | 1021.6 |
| 20260906131822 | 13 | 30 | 0.0 | 0.0 | 0.00 | 0.00 | 0.00 | 97 | 1021.6 |
| 20260906131327 | 13 | 30 | 0.0 | 0.0 | 0.00 | 0.00 | 0.00 | 97 | 1021.6 |
| 20260906130819 | 13 | 30 | 0.0 | 0.0 | 0.00 | 0.00 | 0.00 | 97 | 1021.6 |
| 20260906130409 | 13 | 30 | 0.0 | 0.0 | 0.00 | 0.00 | 0.00 | 97 | 1021.7 |
| 20260906125817 | 12 | 30 | 0.0 | 0.0 | 0.00 | 0.00 | 0.00 | 98 | 1021.7 |
| 20260906125329 | 12 | 30 | 0.0 | 0.0 | 0.00 | 0.00 | 0.00 | 98 | 1021.6 |
| 20260906124820 | 12 | 30 | 0.0 | 0.0 | 0.00 | 0.00 | 0.00 | 98 | 1021.5 |
| 20260906124312 | 12 | 30 | 0.0 | 0.0 | 0.00 | 0.00 | 0.00 | 98 | 1021.6 |
| 20260906123823 | 11 | 30 | 0.0 | 0.0 | 0.00 | 0.00 | 0.00 | 98 | 1021.4 |
| 20260906123315 | 11 | 30 | 0.0 | 0.0 | 0.00 | 0.00 | 0.00 | 98 | 1021.4 |
| 20260906122825 | 11 | 30 | 0.0 | 0.0 | 0.00 | 0.00 | 0.00 | 98 | 1021.4 |
| 20260906122317 | 10 | 30 | 0.0 | 0.0 | 0.00 | 0.00 | 0.00 | 98 | 1021.4 |
| 20260906121818 | 10 | 30 | 0.0 | 0.0 | 0.00 | 0.00 | 0.00 | 98 | 1021.4 |
| 20260906121324 | 10 | 30 | 0.0 | 0.0 | 0.00 | 0.00 | 0.00 | 98 | 1021.3 |
| 20260906120817 | 10 | 30 | 0.0 | 0.0 | 0.00 | 0.00 | 0.00 | 98 | 1021.3 |
| 20260906120342 | 10 | 30 | 0.0 | 0.0 | 0.00 | 0.00 | 0.00 | 97 | 1021.3 |
| 20260906115826 | 10 | 30 | 0.0 | 0.0 | 0.00 | 0.00 | 0.00 | 97 | 1021.3 |
| 20260906115318 | 9 | 30 | 0.0 | 0.0 | 0.00 | 0.00 | 0.00 | 97 | 1021.3 |
| 20260906114812 | 10 | 30 | 0.0 | 0.0 | 0.00 | 0.00 | 0.00 | 97 | 1021.3 |
| 20260906114318 | 9 | 30 | 0.0 | 0.0 | 0.00 | 0.00 | 0.00 | 97 | 1021.1 |
| 20260906113843 | 8 | 30 | 0.0 | 0.0 | 0.00 | 0.00 | 0.00 | 97 | 1021.1 |
| 20260906113334 | 8 | 30 | 0.0 | 0.0 | 0.00 | 0.00 | 0.00 | 97 | 1021.0 |
| 20260906112845 | 9 | 30 | 0.0 | 0.0 | 0.00 | 0.00 | 0.00 | 97 | 1021.0 |
| 20260906112315 | 9 | 30 | 0.0 | 0.0 | 0.00 | 0.00 | 0.00 | 97 | 1020.9 |
| 20260906111814 | 8 | 30 | 0.0 | 0.0 | 0.00 | 0.00 | 0.00 | 97 | 1020.9 |
| 20260906111326 | 8 | 30 | 0.0 | 0.0 | 0.00 | 0.00 | 0.00 | 97 | 1020.9 |
| 20260906110820 | 8 | 30 | 0.0 | 0.0 | 0.00 | 0.00 | 0.00 | 97 | 1020.8 |
| 20260906110353 | 9 | 30 | 0.0 | 0.0 | 0.00 | 0.00 | 0.00 | 97 | 1020.8 |
| 20260906105843 | 9 | 30 | 0.0 | 0.0 | 0.00 | 0.00 | 0.00 | 97 | 1020.9 |
| 20260906105348 | 9 | 30 | 0.0 | 0.0 | 0.00 | 0.00 | 0.00 | 97 | 1020.8 |
| 20260906104834 | 9 | 30 | 0.0 | 0.0 | 0.00 | 0.00 | 0.00 | 97 | 1020.7 |
| 20260906104350 | 9 | 30 | 0.0 | 0.0 | 0.00 | 0.00 | 0.00 | 97 | 1020.8 |
| 20260906103841 | 9 | 30 | 0.0 | 0.0 | 0.00 | 0.00 | 0.00 | 97 | 1020.7 |
| 20260906103313 | 9 | 30 | 0.0 | 0.0 | 0.00 | 0.00 | 0.00 | 97 | 1020.7 |
| 20260906102846 | 9 | 30 | 0.0 | 0.0 | 0.00 | 0.00 | 0.00 | 97 | 1020.6 |
| 20260906102315 | 9 | 30 | 0.0 | 0.0 | 0.00 | 0.00 | 0.00 | 97 | 1020.7 |
| 20260906101814 | 9 | 30 | 0.0 | 0.0 | 0.00 | 0.00 | 0.00 | 97 | 1020.7 |
| 20260906101327 | 9 | 30 | 0.0 | 0.0 | 0.00 | 0.00 | 0.00 | 97 | 1020.6 |
| 20260906100821 | 9 | 30 | 0.0 | 0.0 | 0.00 | 0.00 | 0.00 | 97 | 1020.5 |
| 20260906100313 | 9 | 30 | 0.0 | 0.0 | 0.00 | 0.00 | 0.00 | 97 | 1020.6 |
| 20260906095823 | 9 | 30 | 0.0 | 0.0 | 0.00 | 0.00 | 0.00 | 97 | 1020.6 |
| 20260906095315 | 9 | 30 | 0.0 | 0.0 | 0.00 | 0.00 | 0.00 | 97 | 1020.6 |
| 20260906094826 | 9 | 30 | 0.0 | 0.0 | 0.00 | 0.00 | 0.00 | 97 | 1020.5 |
| 20260906094337 | 9 | 30 | 0.0 | 0.0 | 0.00 | 0.00 | 0.00 | 97 | 1020.6 |
| 20260906093825 | 9 | 30 | 0.0 | 0.0 | 0.00 | 0.00 | 0.00 | 96 | 1020.7 |
| 20260906093315 | 10 | 30 | 0.0 | 0.0 | 0.00 | 0.00 | 0.00 | 97 | 1020.7 |
| 20260906092836 | 10 | 30 | 0.0 | 0.0 | 0.00 | 0.00 | 0.00 | 96 | 1020.7 |
| 20260906092321 | 10 | 30 | 0.0 | 0.0 | 0.00 | 0.00 | 0.00 | 97 | 1020.6 |
| 20260906091336 | 10 | 30 | 0.0 | 0.0 | 0.00 | 0.00 | 0.00 | 97 | 1020.5 |
| 20260906090828 | 10 | 30 | 0.0 | 0.0 | 0.00 | 0.00 | 0.00 | 97 | 1020.6 |
| 20260906090333 | 10 | 30 | 0.0 | 0.0 | 0.00 | 0.00 | 0.00 | 97 | 1020.5 |
| 20260906085838 | 10 | 30 | 0.0 | 0.0 | 0.00 | 0.00 | 0.00 | 97 | 1020.6 |
| 20260906085322 | 10 | 30 | 0.0 | 0.0 | 0.00 | 0.00 | 0.00 | 97 | 1020.5 |
| 20260906084816 | 10 | 30 | 0.0 | 0.0 | 0.00 | 0.00 | 0.00 | 97 | 1020.5 |
| 20260906084328 | 10 | 30 | 0.0 | 0.0 | 0.00 | 0.00 | 0.00 | 97 | 1020.5 |
| 20260906083820 | 10 | 30 | 0.0 | 0.0 | 0.00 | 0.00 | 0.00 | 96 | 1020.5 |
| 20260906083345 | 10 | 30 | 0.0 | 0.0 | 0.00 | 0.00 | 0.00 | 96 | 1020.5 |
| 20260906082817 | 10 | 30 | 0.0 | 0.0 | 0.00 | 0.00 | 0.00 | 96 | 1020.3 |
| 20260906082324 | 10 | 30 | 0.0 | 0.0 | 0.00 | 0.00 | 0.00 | 96 | 1020.4 |
| 20260906081821 | 10 | 30 | 0.0 | 0.0 | 0.00 | 0.00 | 0.00 | 96 | 1020.2 |
| 20260906081314 | 10 | 30 | 0.0 | 0.0 | 0.00 | 0.00 | 0.00 | 96 | 1020.3 |
| 20260906080843 | 10 | 30 | 0.0 | 0.0 | 0.00 | 0.00 | 0.00 | 96 | 1020.2 |
| 20260906080333 | 10 | 30 | 0.0 | 0.0 | 0.00 | 0.00 | 0.00 | 96 | 1020.2 |
| 20260906075837 | 10 | 30 | 0.0 | 0.0 | 0.00 | 0.00 | 0.00 | 96 | 1020.1 |
| 20260906075329 | 11 | 30 | 0.0 | 0.0 | 0.00 | 0.00 | 0.00 | 96 | 1020.1 |
| 20260906074820 | 11 | 30 | 0.0 | 0.0 | 0.00 | 0.00 | 0.00 | 96 | 1020.1 |
| 20260906074326 | 11 | 30 | 0.0 | 0.0 | 0.00 | 0.00 | 0.00 | 96 | 1020.1 |
| 20260906073819 | 11 | 30 | 0.0 | 0.0 | 0.00 | 0.00 | 0.00 | 96 | 1020.0 |
| 20260906073324 | 11 | 30 | 0.0 | 0.0 | 0.00 | 0.00 | 0.00 | 96 | 1020.1 |
| 20260906072834 | 11 | 30 | 0.0 | 0.0 | 0.00 | 0.00 | 0.00 | 96 | 1020.1 |
| 20260906072325 | 11 | 30 | 0.0 | 0.0 | 0.00 | 0.00 | 0.00 | 96 | 1019.9 |
| 20260906071820 | 11 | 30 | 0.0 | 0.0 | 0.00 | 0.00 | 0.00 | 96 | 1020.0 |
| 20260906071312 | 11 | 30 | 0.0 | 0.0 | 0.00 | 0.00 | 0.00 | 96 | 1020.1 |
| 20260906070817 | 11 | 30 | 0.0 | 0.0 | 0.00 | 0.00 | 0.00 | 95 | 1020.1 |
| 20260906070329 | 11 | 30 | 0.0 | 0.0 | 0.00 | 0.00 | 0.00 | 95 | 1020.0 |
| 20260906065813 | 11 | 30 | 0.0 | 0.0 | 0.00 | 0.00 | 0.00 | 95 | 1020.0 |
| 20260906065325 | 11 | 30 | 0.0 | 0.0 | 0.00 | 0.00 | 0.00 | 96 | 1020.1 |
| 20260906064817 | 11 | 30 | 0.0 | 0.0 | 0.00 | 0.00 | 0.00 | 95 | 1020.0 |
| 20260906064316 | 11 | 30 | 0.0 | 0.0 | 0.00 | 0.00 | 0.00 | 95 | 1019.8 |
| 20260906063822 | 11 | 30 | 0.0 | 0.0 | 0.00 | 0.00 | 0.00 | 95 | 1019.8 |
| 20260906063314 | 11 | 30 | 0.0 | 0.0 | 0.00 | 0.00 | 0.00 | 95 | 1019.8 |
| 20260906062827 | 11 | 30 | 0.0 | 0.0 | 0.00 | 0.00 | 0.00 | 94 | 1019.7 |
| 20260906062319 | 11 | 30 | 0.0 | 0.0 | 0.00 | 0.00 | 0.00 | 94 | 1019.8 |
| 20260906061819 | 12 | 30 | 0.0 | 0.0 | 0.00 | 0.00 | 0.00 | 94 | 1019.8 |
| 20260906061313 | 12 | 30 | 0.0 | 0.0 | 0.00 | 0.00 | 0.00 | 94 | 1019.8 |
| 20260906060825 | 12 | 30 | 0.0 | 0.0 | 0.00 | 0.00 | 0.00 | 94 | 1019.7 |
| 20260906060318 | 12 | 30 | 0.0 | 0.0 | 0.00 | 0.00 | 0.00 | 94 | 1019.8 |
| 20260906055823 | 12 | 30 | 0.0 | 0.0 | 0.00 | 0.00 | 0.00 | 95 | 1019.7 |
| 20260906055336 | 12 | 30 | 0.0 | 0.0 | 0.00 | 0.00 | 0.00 | 95 | 1019.6 |
| 20260906054821 | 12 | 30 | 0.0 | 0.0 | 0.00 | 0.00 | 0.00 | 95 | 1019.6 |
| 20260906054314 | 12 | 30 | 0.0 | 0.0 | 0.00 | 0.00 | 0.00 | 96 | 1019.7 |
| 20260906053836 | 12 | 30 | 0.0 | 0.0 | 0.00 | 0.00 | 0.00 | 96 | 1019.6 |
| 20260906053328 | 12 | 30 | 0.0 | 0.0 | 0.00 | 0.00 | 0.00 | 95 | 1019.6 |
| 20260906052841 | 12 | 30 | 0.0 | 0.0 | 0.00 | 0.00 | 0.00 | 95 | 1019.6 |
| 20260906052313 | 12 | 30 | 0.0 | 0.0 | 0.00 | 0.00 | 0.00 | 95 | 1019.6 |
| 20260906051815 | 12 | 30 | 0.0 | 0.0 | 0.00 | 0.00 | 0.00 | 95 | 1019.6 |
| 20260906051321 | 12 | 30 | 0.0 | 0.0 | 0.00 | 0.00 | 0.00 | 95 | 1019.6 |
| 20260906050813 | 12 | 30 | 0.0 | 0.0 | 0.00 | 0.00 | 0.00 | 95 | 1019.6 |
| 20260906050325 | 12 | 30 | 0.0 | 0.0 | 0.00 | 0.00 | 0.00 | 95 | 1019.6 |
| 20260906045816 | 13 | 30 | 0.0 | 0.0 | 0.00 | 0.00 | 0.00 | 95 | 1019.6 |
| 20260906045323 | 13 | 30 | 0.0 | 0.0 | 0.00 | 0.00 | 0.00 | 95 | 1019.6 |
| 20260906044815 | 13 | 30 | 0.0 | 0.0 | 0.00 | 0.00 | 0.00 | 95 | 1019.6 |
| 20260906044326 | 12 | 30 | 0.0 | 0.0 | 0.00 | 0.00 | 0.00 | 95 | 1019.6 |
| 20260906043814 | 12 | 30 | 0.0 | 0.0 | 0.00 | 0.00 | 0.00 | 94 | 1019.5 |
| 20260906043326 | 13 | 30 | 0.0 | 0.0 | 0.00 | 0.00 | 0.00 | 95 | 1019.4 |
| 20260906042817 | 13 | 30 | 0.0 | 0.0 | 0.00 | 0.00 | 0.00 | 95 | 1019.4 |
| 20260906042320 | 13 | 30 | 0.0 | 0.0 | 0.00 | 0.00 | 0.00 | 95 | 1019.3 |
| 20260906041822 | 13 | 30 | 0.0 | 0.0 | 0.00 | 0.00 | 0.00 | 95 | 1019.2 |
| 20260906041315 | 13 | 30 | 0.0 | 0.0 | 0.00 | 0.00 | 0.00 | 95 | 1019.0 |
| 20260906040828 | 13 | 30 | 0.0 | 0.0 | 0.00 | 0.00 | 0.00 | 94 | 1019.1 |
| 20260906040358 | 13 | 30 | 0.0 | 0.0 | 0.00 | 0.00 | 0.00 | 94 | 1019.1 |
| 20260906035819 | 13 | 30 | 0.0 | 0.0 | 0.00 | 0.00 | 0.00 | 94 | 1019.2 |
| 20260906035331 | 13 | 30 | 0.0 | 0.0 | 0.00 | 0.00 | 0.00 | 94 | 1019.2 |
| 20260906034822 | 13 | 30 | 0.0 | 0.0 | 0.00 | 0.00 | 0.00 | 93 | 1019.2 |
| 20260906034314 | 13 | 30 | 0.0 | 0.0 | 0.00 | 0.00 | 0.00 | 93 | 1019.2 |
| 20260906033819 | 13 | 30 | 0.0 | 0.0 | 0.00 | 0.00 | 0.00 | 94 | 1019.2 |
| 20260906033330 | 14 | 30 | 0.0 | 0.0 | 0.00 | 0.00 | 0.00 | 93 | 1019.2 |
| 20260906032824 | 14 | 18 | 0.0 | 0.0 | 0.00 | 0.00 | 0.00 | 94 | 1019.1 |
| 20260906032315 | 14 | 18 | 0.0 | 0.0 | 0.00 | 0.00 | 0.00 | 94 | 1019.2 |
| 20260906031836 | 14 | 18 | 0.0 | 0.0 | 0.00 | 0.00 | 0.00 | 93 | 1019.2 |
| 20260906031339 | 14 | 18 | 0.0 | 0.0 | 0.00 | 0.00 | 0.00 | 93 | 1019.1 |
| 20260906030850 | 14 | 18 | 0.0 | 0.0 | 0.00 | 0.00 | 0.00 | 93 | 1019.1 |
| 20260906030321 | 14 | 18 | 0.0 | 0.0 | 0.00 | 0.00 | 0.00 | 93 | 1019.1 |
| 20260906025828 | 14 | 18 | 0.0 | 0.0 | 0.00 | 0.00 | 0.00 | 92 | 1019.0 |
| 20260906025320 | 15 | 18 | 0.0 | 0.0 | 0.00 | 0.00 | 0.00 | 92 | 1019.0 |
| 20260906024825 | 15 | 18 | 0.0 | 0.0 | 0.00 | 0.00 | 0.00 | 91 | 1019.0 |
| 20260906024317 | 15 | 18 | 0.0 | 0.0 | 0.00 | 0.00 | 0.00 | 91 | 1018.9 |
| 20260906023846 | 15 | 18 | 0.0 | 0.0 | 0.00 | 0.00 | 0.00 | 90 | 1018.9 |
| 20260906023336 | 15 | 18 | 0.0 | 0.0 | 0.00 | 0.00 | 0.00 | 90 | 1018.9 |
| 20260906022827 | 15 | 18 | 0.0 | 0.0 | 0.00 | 0.00 | 0.00 | 89 | 1018.8 |
| 20260906022319 | 16 | 18 | 0.0 | 0.0 | 0.00 | 0.00 | 0.00 | 89 | 1018.9 |
| 20260906021816 | 16 | 18 | 0.0 | 0.0 | 0.00 | 0.00 | 0.00 | 89 | 1018.9 |
| 20260906021322 | 16 | 18 | 0.0 | 0.0 | 0.00 | 0.00 | 0.00 | 89 | 1018.8 |
| 20260906020815 | 16 | 18 | 0.0 | 0.0 | 0.00 | 0.00 | 0.00 | 89 | 1018.9 |
| 20260906020321 | 16 | 18 | 0.0 | 0.0 | 0.00 | 0.00 | 0.00 | 88 | 1018.9 |
| 20260906015812 | 16 | 18 | 0.0 | 0.0 | 0.00 | 0.00 | 0.00 | 88 | 1018.8 |
| 20260906015324 | 16 | 18 | 0.0 | 0.0 | 0.00 | 0.00 | 0.00 | 87 | 1018.8 |
| 20260906014816 | 16 | 18 | 0.0 | 0.0 | 0.00 | 0.00 | 0.00 | 86 | 1018.8 |
| 20260906014327 | 17 | 18 | 0.0 | 0.0 | 0.00 | 0.00 | 0.00 | 85 | 1018.7 |
| 20260906013828 | 17 | 18 | 0.0 | 0.0 | 0.00 | 0.00 | 0.00 | 84 | 1018.7 |
| 20260906013338 | 17 | 18 | 0.0 | 0.0 | 0.00 | 0.00 | 0.00 | 83 | 1018.7 |
| 20260906012851 | 17 | 18 | 0.0 | 0.0 | 0.00 | 0.00 | 0.00 | 83 | 1018.8 |
| 20260906012315 | 17 | 11 | 0.0 | 0.0 | 0.00 | 0.00 | 0.00 | 84 | 1018.8 |
| 20260906011818 | 17 | 11 | 0.0 | 0.0 | 0.00 | 0.00 | 0.00 | 84 | 1018.7 |
| 20260906011342 | 17 | 11 | 0.0 | 0.0 | 0.00 | 0.00 | 0.00 | 84 | 1018.7 |
| 20260906010814 | 18 | 11 | 0.0 | 0.0 | 0.00 | 0.00 | 0.00 | 84 | 1018.7 |
| 20260906010320 | 18 | 11 | 0.0 | 0.0 | 0.00 | 0.00 | 0.00 | 83 | 1018.6 |
| 20260906005828 | 18 | 11 | 0.0 | 0.0 | 0.00 | 0.00 | 0.00 | 82 | 1018.4 |
| 20260906005320 | 18 | 11 | 0.0 | 0.0 | 0.00 | 0.00 | 0.00 | 82 | 1018.5 |
| 20260906004831 | 19 | 11 | 0.0 | 0.0 | 0.00 | 0.00 | 0.00 | 82 | 1018.6 |
| 20260906004322 | 19 | 11 | 0.0 | 1.6 | 0.00 | 0.00 | 0.00 | 82 | 1018.6 |
| 20260906003815 | 19 | 11 | 0.0 | 1.6 | 0.00 | 0.00 | 0.00 | 81 | 1018.5 |
| 20260906003327 | 20 | 8 | 0.0 | 1.6 | 0.00 | 0.00 | 0.00 | 81 | 1018.6 |
| 20260906002820 | 20 | 22 | 0.0 | 3.2 | 0.00 | 0.00 | 0.00 | 81 | 1018.6 |
| 20260906002312 | 20 | 32 | 0.0 | 3.2 | 0.00 | 0.00 | 0.00 | 81 | 1018.6 |
| 20260906001822 | 20 | 345 | 0.0 | 1.6 | 0.00 | 0.00 | 0.00 | 80 | 1018.5 |
| 20260906001312 | 21 | 53 | 0.0 | 1.6 | 0.00 | 0.00 | 0.00 | 78 | 1018.4 |
| 20260906000841 | 21 | 53 | 0.0 | 1.6 | 0.00 | 0.00 | 0.00 | 76 | 1018.4 |
| 20260906000312 | 22 | 270 | 0.0 | 0.0 | 0.00 | 0.00 | 0.00 | 72 | 1018.4 |
| 20260905235817 | 22 | 270 | 0.0 | 0.0 | 0.00 | 0.00 | 0.00 | 73 | 1018.4 |
| 20260905235348 | 22 | 270 | 0.0 | 1.6 | 0.00 | 0.00 | 0.00 | 72 | 1018.4 |
| 20260905234838 | 22 | 265 | 0.0 | 1.6 | 0.00 | 0.00 | 0.00 | 72 | 1018.4 |
| 20260905234327 | 22 | 263 | 0.0 | 1.6 | 0.00 | 0.00 | 0.00 | 75 | 1018.5 |
| 20260905233820 | 22 | 263 | 0.0 | 1.6 | 0.00 | 0.00 | 0.00 | 75 | 1018.5 |
| 20260905233311 | 22 | 263 | 0.0 | 1.6 | 0.00 | 0.00 | 0.00 | 75 | 1018.4 |
| 20260905232823 | 22 | 262 | 0.0 | 1.6 | 0.00 | 0.00 | 0.00 | 73 | 1018.5 |
| 20260905232314 | 22 | 270 | 1.6 | 4.8 | 0.00 | 0.00 | 0.00 | 72 | 1018.4 |
| 20260905231815 | 22 | 282 | 1.6 | 6.4 | 0.00 | 0.00 | 0.00 | 72 | 1018.3 |
| 20260905231348 | 22 | 280 | 3.2 | 6.4 | 0.00 | 0.00 | 0.00 | 72 | 1018.3 |
| 20260905230818 | 23 | 245 | 3.2 | 6.4 | 0.00 | 0.00 | 0.00 | 71 | 1018.3 |
| 20260905230327 | 23 | 260 | 4.8 | 8.0 | 0.00 | 0.00 | 0.00 | 70 | 1018.3 |
| 20260905225838 | 23 | 275 | 3.2 | 8.0 | 0.00 | 0.00 | 0.00 | 70 | 1018.3 |
| 20260905225329 | 23 | 285 | 3.2 | 6.4 | 0.00 | 0.00 | 0.00 | 68 | 1018.4 |
| 20260905224821 | 25 | 247 | 1.6 | 4.8 | 0.00 | 0.00 | 0.00 | 63 | 1018.2 |
| 20260905224311 | 25 | 126 | 0.0 | 8.0 | 0.00 | 0.00 | 0.00 | 63 | 1018.2 |
| 20260905223820 | 25 | 127 | 0.0 | 11.3 | 0.00 | 0.00 | 0.00 | 62 | 1018.1 |
| 20260905223311 | 26 | 144 | 6.4 | 11.3 | 0.00 | 0.00 | 0.00 | 61 | 1017.9 |
| 20260905222815 | 26 | 217 | 0.0 | 9.7 | 0.00 | 0.00 | 0.00 | 60 | 1017.9 |
| 20260905222326 | 26 | 212 | 6.4 | 9.7 | 0.00 | 0.00 | 0.00 | 58 | 1017.9 |
| 20260905221826 | 26 | 220 | 0.0 | 14.5 | 0.00 | 0.00 | 0.00 | 63 | 1018.0 |
| 20260905221319 | 26 | 241 | 8.0 | 14.5 | 0.00 | 0.00 | 0.00 | 59 | 1018.0 |
| 20260905220812 | 27 | 218 | 4.8 | 9.7 | 0.00 | 0.00 | 0.00 | 57 | 1018.0 |
| 20260905220343 | 27 | 272 | 0.0 | 1.6 | 0.00 | 0.00 | 0.00 | 59 | 1018.0 |
| 20260905215814 | 26 | 6 | 0.0 | 6.4 | 0.00 | 0.00 | 0.00 | 60 | 1017.9 |
| 20260905215326 | 27 | 203 | 3.2 | 6.4 | 0.00 | 0.00 | 0.00 | 57 | 1017.9 |
| 20260905214326 | 26 | 219 | 0.0 | 11.3 | 0.00 | 0.00 | 0.00 | 59 | 1017.9 |
| 20260905213815 | 26 | 214 | 1.6 | 11.3 | 0.00 | 0.00 | 0.00 | 60 | 1017.8 |
| 20260905213329 | 26 | 233 | 0.0 | 1.6 | 0.00 | 0.00 | 0.00 | 61 | 1017.7 |
| 20260905212821 | 26 | 65 | 0.0 | 3.2 | 0.00 | 0.00 | 0.00 | 60 | 1017.6 |
| 20260905212313 | 26 | 118 | 0.0 | 3.2 | 0.00 | 0.00 | 0.00 | 59 | 1017.5 |
| 20260905211816 | 26 | 153 | 0.0 | 3.2 | 0.00 | 0.00 | 0.00 | 63 | 1017.5 |
| 20260905210820 | 24 | 54 | 0.0 | 0.0 | 0.00 | 0.00 | 0.00 | 65 | 1017.6 |
| 20260905210313 | 24 | 56 | 0.0 | 0.0 | 0.00 | 0.00 | 0.00 | 67 | 1017.5 |
| 20260905205824 | 24 | 56 | 0.0 | 0.0 | 0.00 | 0.00 | 0.00 | 65 | 1017.5 |
| 20260905205316 | 25 | 56 | 0.0 | 3.2 | 0.00 | 0.00 | 0.00 | 62 | 1017.5 |
| 20260905204827 | 25 | 56 | 1.6 | 3.2 | 0.00 | 0.00 | 0.00 | 60 | 1017.5 |
| 20260905204315 | 26 | 255 | 0.0 | 3.2 | 0.00 | 0.00 | 0.00 | 60 | 1017.5 |
| 20260905203827 | 26 | 222 | 0.0 | 3.2 | 0.00 | 0.00 | 0.00 | 58 | 1017.5 |